Earlysville, VA

2:20 PM EDT on August 28, 2016 (GMT -0400)
Charlottesville-Albemarle

Weather History for KCHO - July, 2012

Change the Weather History Date:

Tuesday, July 3, 2012

  Actual Average Record
Temperature  
Mean Temperature 85 °F 75 °F  
Max Temperature 99 °F 86 °F 100 °F (1954)
Min Temperature 70 °F 64 °F 50 °F (2001)
Degree Days  
Heating Degree Days 0 0  
Month to date heating degree days 0 0  
Since 1 June heating degree days 0 11  
Since 1 July heating degree days 0 0  
Cooling Degree Days 20 10  
Month to date cooling degree days 62 30  
Year to date cooling degree days 634 335  
Since 1 June cooling degree days 364 249  
Growing Degree Days 34 (Base 50)    
Moisture  
Dew Point 66 °F    
Average Humidity 58    
Maximum Humidity 84    
Minimum Humidity 31    
Precipitation  
Precipitation T in 0.14 in 1.29 in (2014)
Month to date precipitation T 0.41  
Year to date precipitation 17.34 20.61  
Sea Level Pressure  
Sea Level Pressure 29.94 in    
Wind  
Wind Speed 3 mph (SSW)    
Max Wind Speed 12 mph    
Max Gust Speed 18 mph    
Visibility 9 miles    
Events      
T = Trace of Precipitation, MM = Missing Value Source: NWS Daily Summary

Daily Weather History Graph

Daily Weather History Graph

Search for Another Location

Airport or City:

Trip Planner

Search our weather history database for the weather conditions in past years. The results will help you decide how hot, cold, wet, or windy it might be!

Date:

Astronomy

Jul. 03, 2012 Rise Set
Actual Time 5:55 AM EDT 8:40 PM EDT
Civil Twilight 5:24 AM EDT 9:11 PM EDT
Nautical Twilight 4:45 AM EDT 9:50 PM EDT
Astronomical Twilight 4:00 AM EDT 10:35 PM EDT
Moon 8:34 PM EDT (7/3) 5:46 AM EDT (7/3)
Length of Visible Light 15h 47m
Length of Day
14h 44m
Full, 100% of the Moon is Illuminated
Jul 3
Full
Jul 3
Full
Jul 10
Last Quarter
Jul 19
New
Jul 26
First Quarter

Hourly Weather History & Observations

Time (EDT) Temp. Heat Index Dew Point Humidity Pressure Visibility Wind Dir Wind Speed Gust Speed Precip Events Conditions
12:53 AM 75.9 °F - 68.0 °F 76% 29.98 in 10.0 mi Calm Calm - N/A   Clear
1:53 AM 75.0 °F - 69.1 °F 82% 29.98 in 10.0 mi Calm Calm - N/A   Clear
2:53 AM 75.0 °F - 69.1 °F 82% 29.97 in 8.0 mi Calm Calm - N/A   Clear
3:53 AM 73.0 °F - 66.9 °F 81% 29.96 in 5.0 mi Calm Calm - N/A   Haze
4:53 AM 71.1 °F - 66.0 °F 84% 29.96 in 5.0 mi Calm Calm - N/A   Haze
5:53 AM 71.1 °F - 66.0 °F 84% 29.96 in 5.0 mi Calm Calm - N/A   Haze
6:53 AM 72.0 °F - 66.0 °F 81% 29.97 in 8.0 mi Calm Calm - N/A   Clear
7:53 AM 75.9 °F - 66.0 °F 71% 29.99 in 10.0 mi Calm Calm - N/A   Clear
8:53 AM 81.0 °F 83.3 °F 66.9 °F 62% 29.99 in 10.0 mi Calm Calm - N/A   Clear
9:53 AM 87.1 °F 89.2 °F 66.0 °F 49% 29.97 in 10.0 mi Calm Calm - N/A   Clear
10:53 AM 93.0 °F 94.2 °F 63.0 °F 37% 29.97 in 10.0 mi Calm Calm - N/A   Clear
11:53 AM 93.9 °F 95.6 °F 64.0 °F 37% 29.97 in 10.0 mi South 3.5 mph - N/A   Clear
1:53 PM 96.1 °F 97.3 °F 63.0 °F 33% 29.95 in 10.0 mi Calm Calm - N/A   Clear
2:53 PM 98.1 °F 99.1 °F 62.1 °F 30% 29.92 in 10.0 mi ESE 5.8 mph - N/A   Clear
3:53 PM 98.1 °F 99.1 °F 62.1 °F 30% 29.90 in 10.0 mi ESE 5.8 mph - N/A   Clear
4:53 PM 95.0 °F 97.0 °F 64.0 °F 36% 29.90 in 10.0 mi East 5.8 mph - N/A   Clear
5:53 PM 87.1 °F 88.9 °F 64.9 °F 48% 29.91 in 10.0 mi Variable 4.6 mph - N/A   Scattered Clouds
6:53 PM 88.0 °F 90.3 °F 66.0 °F 48% 29.89 in 10.0 mi West 9.2 mph - 0.00 in   Scattered Clouds
7:53 PM 84.0 °F 86.3 °F 66.0 °F 55% 29.92 in 10.0 mi West 9.2 mph - N/A   Mostly Cloudy
8:53 PM 82.9 °F 85.4 °F 66.9 °F 58% 29.92 in 10.0 mi SW 8.1 mph - N/A   Mostly Cloudy
9:53 PM 79.0 °F - 69.1 °F 72% 29.91 in 10.0 mi North 4.6 mph - 0.00 in   Clear
10:53 PM 78.1 °F - 69.1 °F 74% 29.91 in 10.0 mi Calm Calm - N/A   Clear
11:53 PM 78.1 °F - 68.0 °F 71% 29.90 in 10.0 mi SSW 3.5 mph - N/A   Clear